KD4KKF Weather Reports


Display with metric or nautical units.
time (UTC)temp
F
wind
direction
speed
MPH
gust
MPH
rain 1hr
in
rain 24hr
in
rain mn
in
humidity
%
barometer
mb
20260504185223 78 230 6.0 9.0 0.00 0.00 0.00 46 1013.5
20260504184719 78 150 1.0 2.0 0.00 0.00 0.00 47 1013.5
20260504184215 78 227 2.0 2.0 0.00 0.00 0.00 46 1013.3
20260504183711 79 253 4.0 5.0 0.00 0.00 0.00 45 1013.7
20260504183208 79 225 2.0 3.0 0.00 0.00 0.00 44 1013.7
20260504182706 78 166 0.0 1.0 0.00 0.00 0.00 48 1013.8
20260504182203 78 92 3.0 5.0 0.00 0.00 0.00 46 1014.0
20260504181701 78 235 2.0 2.0 0.00 0.00 0.00 46 1013.9
20260504181158 77 136 1.0 1.0 0.00 0.00 0.00 48 1013.8
20260504180657 78 282 2.0 5.0 0.00 0.00 0.00 49 1014.1
20260504180155 78 154 2.0 2.0 0.00 0.00 0.00 48 1013.8
20260504175652 78 293 3.0 5.0 0.00 0.00 0.00 49 1014.0
20260504175149 76 171 2.0 2.0 0.00 0.00 0.00 50 1014.1
20260504174647 75 249 2.0 3.0 0.00 0.00 0.00 51 1014.3
20260504174143 75 139 6.0 8.0 0.00 0.00 0.00 51 1014.5
20260504173640 75 172 2.0 2.0 0.00 0.00 0.00 54 1014.4
20260504173138 77 183 3.0 3.0 0.00 0.00 0.00 49 1014.4
20260504172634 77 186 5.0 6.0 0.00 0.00 0.00 50 1014.8
20260504172131 76 304 2.0 3.0 0.00 0.00 0.00 56 1014.6
20260504171627 75 175 1.0 2.0 0.00 0.00 0.00 52 1014.8
20260504171125 75 340 2.0 3.0 0.00 0.00 0.00 56 1014.9
20260504170621 76 240 5.0 6.0 0.00 0.00 0.00 52 1015.0
20260504170119 75 217 1.0 1.0 0.00 0.00 0.00 55 1014.9
20260504151004 72 155 1.0 2.0 0.00 0.00 0.00 63 1016.2
20260504150501 71 126 0.0 0.0 0.00 0.00 0.00 65 1016.0
20260504140922 66 195 0.0 0.0 0.00 0.00 0.00 72 1016.7
20260504140418 64 146 0.0 0.0 0.00 0.00 0.00 72 1016.4
20260504130343 59 138 3.0 5.0 0.00 0.00 0.00 83 1016.9
20260504120301 46 141 0.0 0.0 0.00 0.00 0.00 99 1016.5
20260504110224 44 162 0.0 0.0 0.00 0.00 0.00 99 1015.7
20260504100148 44 161 0.0 0.0 0.00 0.00 0.00 99 1015.8
20260504090110 44 161 0.0 0.0 0.00 0.00 0.00 99 1015.8
20260504081541 44 161 0.0 0.0 0.00 0.00 0.00 99 1015.7
20260504081036 45 161 0.0 0.0 0.00 0.00 0.00 99 1015.7
20260504080533 45 161 0.0 0.0 0.00 0.00 0.00 99 1015.7
20260504050346 48 161 0.0 0.0 0.00 0.00 0.00 99 1017.4
20260504045844 48 161 0.0 0.0 0.00 0.00 0.00 99 1017.4
20260504045344 48 161 0.0 0.0 0.00 0.00 0.00 99 1017.2
20260504044841 48 161 0.0 0.0 0.00 0.00 0.00 99 1017.3
20260504044338 48 161 0.0 0.0 0.00 0.00 0.00 99 1017.4
20260504043836 48 161 0.0 0.0 0.00 0.00 0.00 99 1017.2
20260504043332 48 161 0.0 0.0 0.00 0.00 0.00 99 1017.5
20260504042830 48 161 0.0 0.0 0.00 0.00 0.00 99 1017.6
20260504042326 49 161 0.0 0.0 0.00 0.00 0.00 99 1017.6
20260504041822 49 161 0.0 0.0 0.00 0.00 0.00 99 1017.7
20260504041318 49 161 0.0 0.0 0.00 0.00 0.00 99 1017.9
20260504040815 49 161 0.0 0.0 0.00 0.00 0.00 99 1017.9
20260504040313 49 161 0.0 0.0 0.00 0.00 0.00 99 1017.7
20260504035808 49 161 0.0 0.0 0.00 0.00 0.00 99 1017.7
20260504035306 50 161 0.0 0.0 0.00 0.00 0.00 99 1017.6
20260504034803 50 161 0.0 0.0 0.00 0.00 0.00 99 1017.8
20260504034300 50 161 0.0 0.0 0.00 0.00 0.00 99 1017.6
20260504033757 50 162 0.0 0.0 0.00 0.00 0.00 99 1017.6
20260504033255 50 161 0.0 0.0 0.00 0.00 0.00 99 1017.5
20260504032751 50 161 0.0 0.0 0.00 0.00 0.00 99 1017.4
20260504032249 50 161 0.0 0.0 0.00 0.00 0.00 99 1017.6
20260504031745 50 161 0.0 0.0 0.00 0.00 0.00 99 1017.4
20260504031243 50 161 0.0 0.0 0.00 0.00 0.00 99 1017.4
20260504030738 50 161 0.0 0.0 0.00 0.00 0.00 99 1017.4
20260504030236 50 161 0.0 0.0 0.00 0.00 0.00 98 1017.5
20260504025732 51 161 0.0 0.0 0.00 0.00 0.00 98 1017.7
20260504025229 51 161 0.0 0.0 0.00 0.00 0.00 98 1017.4
20260504024726 51 161 0.0 0.0 0.00 0.00 0.00 97 1017.8
20260504024223 52 161 0.0 0.0 0.00 0.00 0.00 96 1017.5
20260504023720 51 161 0.0 0.0 0.00 0.00 0.00 95 1017.7
20260504023216 52 161 0.0 0.0 0.00 0.00 0.00 95 1017.7
20260504022712 52 162 0.0 0.0 0.00 0.00 0.00 94 1017.8
20260504022208 52 164 0.0 0.0 0.00 0.00 0.00 94 1017.8
20260504021706 52 170 0.0 0.0 0.00 0.00 0.00 94 1017.6
20260504021202 52 170 0.0 0.0 0.00 0.00 0.00 93 1017.4
20260504020659 53 128 0.0 0.0 0.00 0.00 0.00 94 1017.7
20260504020155 53 127 0.0 0.0 0.00 0.00 0.00 93 1017.5
20260504015652 53 253 0.0 0.0 0.00 0.00 0.00 93 1017.2
20260504015148 54 253 0.0 0.0 0.00 0.00 0.00 92 1017.2
20260504014644 54 253 0.0 0.0 0.00 0.00 0.00 91 1016.9
20260504014142 54 253 0.0 0.0 0.00 0.00 0.00 90 1017.0
20260504013639 54 253 0.0 0.0 0.00 0.00 0.00 90 1016.9
20260504013136 54 253 0.0 0.0 0.00 0.00 0.00 91 1016.9
20260504012633 55 253 0.0 0.0 0.00 0.00 0.00 91 1016.8
20260504012131 55 253 0.0 0.0 0.00 0.00 0.00 92 1016.9
20260504011628 55 253 0.0 0.0 0.00 0.00 0.00 90 1016.9
20260504011124 56 253 0.0 0.0 0.00 0.00 0.00 89 1016.8
20260504010620 56 253 0.0 0.0 0.00 0.00 0.00 87 1016.6
20260504010116 57 254 0.0 0.0 0.00 0.00 0.00 86 1016.6
20260504005613 57 254 0.0 0.0 0.00 0.00 0.00 85 1016.4
20260504005110 58 254 0.0 0.0 0.00 0.00 0.00 84 1016.5
20260504004608 58 254 0.0 0.0 0.00 0.00 0.00 82 1016.6
20260504004105 58 254 0.0 0.0 0.00 0.00 0.00 81 1016.7
20260504003601 59 254 0.0 0.0 0.00 0.00 0.00 80 1016.7
20260504003058 59 254 0.0 0.0 0.00 0.00 0.00 79 1016.4
20260504002555 59 254 0.0 0.0 0.00 0.00 0.00 78 1016.4
20260504002052 60 254 0.0 0.0 0.00 0.00 0.00 75 1016.2
20260504001550 60 254 0.0 0.0 0.00 0.00 0.00 73 1016.4
20260504001045 61 254 0.0 0.0 0.00 0.00 0.00 75 1016.6
20260504000543 62 254 0.0 0.0 0.00 0.00 0.00 73 1016.4
20260504000041 63 255 0.0 0.0 0.00 0.00 0.00 71 1016.6
20260503235539 63 249 0.0 0.0 0.00 0.00 0.00 68 1016.6
20260503235035 64 250 0.0 0.0 0.00 0.00 0.00 68 1016.6
20260503234533 65 203 0.0 0.0 0.00 0.00 0.00 60 1016.2
20260503234031 66 204 0.0 1.0 0.00 0.00 0.00 61 1016.4
20260503233527 67 216 1.0 1.0 0.00 0.00 0.00 56 1016.7
20260503233023 67 198 0.0 0.0 0.00 0.00 0.00 60 1016.5
20260503232520 68 222 0.0 0.0 0.00 0.00 0.00 55 1016.4
20260503232018 69 257 0.0 1.0 0.00 0.00 0.00 47 1016.6
20260503231516 70 189 2.0 2.0 0.00 0.00 0.00 47 1016.6
20260503231012 70 174 0.0 0.0 0.00 0.00 0.00 46 1016.6
20260503230509 70 227 2.0 2.0 0.00 0.00 0.00 42 1016.8
20260503230006 71 214 0.0 0.0 0.00 0.00 0.00 42 1016.9
20260503225503 72 230 0.0 0.0 0.00 0.00 0.00 42 1016.8
20260503224958 71 235 0.0 0.0 0.00 0.00 0.00 40 1016.8
20260503224455 71 267 3.0 3.0 0.00 0.00 0.00 41 1016.9
20260503223953 71 300 2.0 3.0 0.00 0.00 0.00 41 1016.8
20260503223451 71 265 1.0 2.0 0.00 0.00 0.00 41 1016.7
20260503222946 71 259 3.0 3.0 0.00 0.00 0.00 40 1016.5
20260503222445 71 299 0.0 1.0 0.00 0.00 0.00 40 1016.7
20260503221943 72 255 3.0 3.0 0.00 0.00 0.00 40 1016.8
20260503221440 73 228 0.0 0.0 0.00 0.00 0.00 41 1016.6
20260503220932 72 342 3.0 3.0 0.00 0.00 0.00 44 1016.7
20260503220428 72 273 1.0 2.0 0.00 0.00 0.00 39 1016.9
20260503215925 72 356 0.0 0.0 0.00 0.00 0.00 41 1016.8
20260503215422 72 243 3.0 3.0 0.00 0.00 0.00 40 1016.8
20260503214920 72 286 1.0 1.0 0.00 0.00 0.00 41 1017.1
20260503214417 71 252 3.0 3.0 0.00 0.00 0.00 41 1017.0
20260503213915 72 237 0.0 0.0 0.00 0.00 0.00 39 1016.9
20260503213413 71 243 0.0 0.0 0.00 0.00 0.00 42 1017.1
20260503212909 72 72 3.0 3.0 0.00 0.00 0.00 41 1017.2
20260503212406 71 48 6.0 7.0 0.00 0.00 0.00 40 1017.3
20260503211904 72 103 3.0 3.0 0.00 0.00 0.00 40 1017.4
20260503211400 72 308 5.0 6.0 0.00 0.00 0.00 38 1017.7
20260503210855 73 348 3.0 3.0 0.00 0.00 0.00 38 1017.5
20260503210352 73 341 1.0 2.0 0.00 0.00 0.00 39 1017.6
20260503205847 72 201 2.0 2.0 0.00 0.00 0.00 37 1017.8
20260503205345 72 238 0.0 0.0 0.00 0.00 0.00 39 1017.4
20260503204841 71 272 5.0 7.0 0.00 0.00 0.00 38 1017.7
20260503204338 72 284 5.0 6.0 0.00 0.00 0.00 42 1017.5
20260503203835 71 263 4.0 6.0 0.00 0.00 0.00 37 1017.9
20260503203333 72 240 3.0 5.0 0.00 0.00 0.00 38 1017.9
20260503202830 71 263 2.0 5.0 0.00 0.00 0.00 37 1018.0
20260503202328 71 267 3.0 3.0 0.00 0.00 0.00 39 1018.0
20260503201826 71 256 3.0 5.0 0.00 0.00 0.00 38 1018.1
20260503201322 72 274 3.0 3.0 0.00 0.00 0.00 38 1018.4
20260503200820 71 207 3.0 6.0 0.00 0.00 0.00 37 1018.5
20260503200316 72 271 2.0 2.0 0.00 0.00 0.00 40 1018.6
20260503195813 71 344 2.0 2.0 0.00 0.00 0.00 38 1018.4
20260503195310 72 75 1.0 2.0 0.00 0.00 0.00 35 1018.8
20260503194808 71 272 4.0 6.0 0.00 0.00 0.00 39 1019.0
20260503194303 71 311 6.0 7.0 0.00 0.00 0.00 38 1018.9
20260503193759 70 239 7.0 8.0 0.00 0.00 0.00 38 1019.2
20260503193255 71 203 3.0 7.0 0.00 0.00 0.00 37 1019.3
20260503192751 70 278 2.0 2.0 0.00 0.00 0.00 40 1019.2
20260503192246 70 221 3.0 3.0 0.00 0.00 0.00 40 1019.5
20260503191743 70 144 3.0 5.0 0.00 0.00 0.00 43 1019.3
20260503191240 70 41 5.0 6.0 0.00 0.00 0.00 43 1019.4
20260503190737 70 30 2.0 2.0 0.00 0.00 0.00 45 1019.6
20260503190233 69 36 4.0 6.0 0.00 0.00 0.00 41 1019.7
20260503185731 69 227 3.0 5.0 0.00 0.00 0.00 42 1019.6